Погода в Тыгише

Россия / Свердловская область     56°46′48″N   61°55′46″E
темп.,
°C
ветер,
м/с
пор.,
м/с
влажн.,
%
обл.,
%
осадки,
мм/ч
давл.,
гПа
погр.,
м
18 апреля, вс
вс1823:00+6сз410635 0.0 1020233
02:00+4зсз410736 0.0 1018210
05:00+3з512765 0.0 1017265
08:00+5сз713675 0.0 1016898
11:00+4с81060100 0.3 10191339
14:00+4ссв91038100 0.0 10232233
17:00+3ссв8931100 0.0 10262231
20:000св69365 0.0 1029765
19 апреля, пн
пн1923:00−2св48420 0.0 1032569
02:00−3св25480 0.0 1033384
05:00−4ссв24520 0.0 1035162
08:00−3св35390 0.0 10361041
11:000ссв463366 0.0 10361772
14:00+2ссв4630100 0.0 10352163
17:00+3ссв4529100 0.0 10352181
20:00+1ссв22415 0.0 103525
20 апреля, вт
вт2023:00−1ссз11440 0.0 103510
02:00−2сз11472 0.0 103611
05:00−2з35535 0.0 103686
08:00+1з57405 0.0 1035369
11:00+6зсз673231 0.0 10331343
14:00+8зсз68275 0.0 10311652
17:00+9сз78335 0.0 10301714
20:00+6сз49480 0.0 1029181
21 апреля, ср
ср2123:00+3сз511600 0.0 1030234
02:00+1сз48710 0.0 1031155
05:000сз47765 0.0 1032120
08:00+4ссз45640 0.0 1033253
11:00+8с34495 0.0 10331035
14:00+11с34405 0.0 10331611
17:00+12ссв33385 0.0 10331735
20:00+9св22506 0.0 103411
22 апреля, чт
чт2223:00+6юв49685 0.0 1036267
02:00+4ююв37764 0.0 1036148
05:00+3ююв36825 0.0 103797
08:00+6ю35690 0.0 1038244
11:00+11ю45480 0.0 1037845
14:00+14ю45385 0.0 10371688
17:00+15ю45365 0.0 10361812
20:00+11ю355098 0.0 103675